• In Hungary
  • List of Countries
  • For 7 days
  • Water Temperature
  • Satellite Maps
  • Weather Map
  • News
  • Weather Widgets
  • user-avatar
    Login

    Hourly Weather Wisnicze

    Today, 24 September, Monday

    Time Temperature Precipitation Wind Pressure Humidity
    00:00 +13°C° 0.6 mm 10 mps 728 mmHg 78%
    01:00 +12°C° 0 mm 9 mps 729 mmHg 81%
    02:00 +10°C° 0.5 mm 9 mps 731 mmHg 81%
    03:00 +8°C° 0.5 mm 9 mps 732 mmHg 80%
    04:00 +6°C° 0.5 mm 9 mps 734 mmHg 80%
    05:00 +6°C° 0.1 mm 9 mps 735 mmHg 79%
    06:00 +6°C° 0.1 mm 9 mps 736 mmHg 78%
    07:00 +6°C° 0 mm 7 mps 738 mmHg 77%
    08:00 +7°C° 0.1 mm 8 mps 738 mmHg 74%
    09:00 +7°C° 0.1 mm 8 mps 739 mmHg 71%
    10:00 +7°C° 0.1 mm 9 mps 740 mmHg 67%
    11:00 +8°C° 0.1 mm 9 mps 740 mmHg 64%
    12:00 +8°C° 0.1 mm 9 mps 741 mmHg 60%
    13:00 +10°C° 0.1 mm 9 mps 741 mmHg 56%
    14:00 +10°C° 0.1 mm 9 mps 741 mmHg 56%
    15:00 +10°C° 0.1 mm 9 mps 741 mmHg 55%
    16:00 +10°C° 0.1 mm 8 mps 741 mmHg 55%
    17:00 +9°C° 0.1 mm 7 mps 742 mmHg 59%
    18:00 +8°C° 0.1 mm 6 mps 742 mmHg 62%
    19:00 +7°C° 0.1 mm 5 mps 743 mmHg 66%
    20:00 +7°C° 0 mm 5 mps 743 mmHg 67%
    21:00 +7°C° 0 mm 5 mps 744 mmHg 67%
    22:00 +6°C° 0 mm 5 mps 744 mmHg 68%
    23:00 +6°C° 0 mm 5 mps 745 mmHg 69%

    Tomorrow, 25 September, Tuesday

    Time Temperature Precipitation Wind Pressure Humidity
    00:00 +6°C° 0 mm 5 mps 745 mmHg 71%
    01:00 +5°C° 0 mm 5 mps 745 mmHg 72%
    02:00 +5°C° 0 mm 5 mps 746 mmHg 74%
    03:00 +5°C° 0 mm 5 mps 746 mmHg 75%
    04:00 +3°C° 0 mm 5 mps 747 mmHg 77%
    05:00 +3°C° 0 mm 5 mps 747 mmHg 77%
    06:00 +3°C° 0 mm 5 mps 748 mmHg 76%
    07:00 +5°C° 0 mm 5 mps 748 mmHg 76%
    08:00 +6°C° 0 mm 5 mps 749 mmHg 70%
    09:00 +7°C° 0 mm 6 mps 749 mmHg 65%
    10:00 +9°C° 0 mm 6 mps 750 mmHg 59%
    11:00 +10°C° 0.1 mm 6 mps 750 mmHg 56%
    12:00 +10°C° 0.1 mm 6 mps 750 mmHg 52%
    13:00 +11°C° 0.1 mm 6 mps 750 mmHg 48%
    14:00 +11°C° 0 mm 6 mps 751 mmHg 47%
    15:00 +12°C° 0 mm 5 mps 751 mmHg 46%
    16:00 +10°C° 0 mm 5 mps 751 mmHg 46%
    17:00 +10°C° 0 mm 4 mps 751 mmHg 49%
    18:00 +9°C° 0 mm 3 mps 752 mmHg 52%
    19:00 +8°C° 0 mm 2 mps 752 mmHg 55%
    20:00 +8°C° 0 mm 2 mps 752 mmHg 57%
    21:00 +7°C° 0 mm 2 mps 753 mmHg 59%
    22:00 +6°C° 0 mm 2 mps 753 mmHg 61%
    23:00 +6°C° 0 mm 2 mps 753 mmHg 62%

    Day after tomorrow, 26 September, Wednesday

    Time Temperature Precipitation Wind Pressure Humidity
    00:00 +6°C° 0 mm 2 mps 753 mmHg 63%
    01:00 +6°C° 0 mm 1 mps 754 mmHg 65%
    02:00 +6°C° 0 mm 1 mps 753 mmHg 66%
    03:00 +6°C° 0 mm 1 mps 753 mmHg 67%
    04:00 +5°C° 0 mm 1 mps 753 mmHg 67%
    05:00 +5°C° 0 mm 2 mps 753 mmHg 66%
    06:00 +5°C° 0 mm 2 mps 753 mmHg 65%
    07:00 +6°C° 0 mm 2 mps 754 mmHg 64%
    08:00 +8°C° 0 mm 2 mps 753 mmHg 57%
    09:00 +10°C° 0 mm 3 mps 753 mmHg 50%
    10:00 +12°C° 0 mm 3 mps 753 mmHg 42%
    11:00 +13°C° 0 mm 4 mps 752 mmHg 41%
    12:00 +13°C° 0 mm 4 mps 752 mmHg 39%
    13:00 +14°C° 0 mm 4 mps 751 mmHg 37%
    14:00 +14°C° 0 mm 4 mps 751 mmHg 39%
    15:00 +14°C° 0 mm 4 mps 750 mmHg 42%
    16:00 +14°C° 0 mm 3 mps 750 mmHg 44%
    17:00 +13°C° 0 mm 3 mps 750 mmHg 46%
    18:00 +12°C° 0 mm 3 mps 750 mmHg 49%
    19:00 +11°C° 0 mm 3 mps 750 mmHg 51%
    20:00 +11°C° 0 mm 3 mps 749 mmHg 52%
    21:00 +10°C° 0 mm 3 mps 749 mmHg 53%
    22:00 +10°C° 0 mm 4 mps 749 mmHg 53%
    23:00 +10°C° 0 mm 4 mps 749 mmHg 53%

    27 September, Thursday

    Time Temperature Precipitation Wind Pressure Humidity
    00:00 +8°C° 0 mm 4 mps 749 mmHg 53%
    01:00 +8°C° 0 mm 4 mps 749 mmHg 53%
    02:00 +8°C° 0 mm 4 mps 748 mmHg 54%
    03:00 +8°C° 0 mm 4 mps 748 mmHg 54%
    04:00 +8°C° 0 mm 4 mps 748 mmHg 54%
    05:00 +8°C° 0 mm 4 mps 748 mmHg 53%
    06:00 +10°C° 0 mm 4 mps 748 mmHg 53%
    07:00 +10°C° 0 mm 4 mps 748 mmHg 52%
    08:00 +12°C° 0 mm 4 mps 748 mmHg 50%
    09:00 +14°C° 0 mm 4 mps 747 mmHg 47%
    10:00 +17°C° 0 mm 4 mps 747 mmHg 44%
    11:00 +18°C° 0 mm 4 mps 747 mmHg 44%
    12:00 +19°C° 0 mm 4 mps 747 mmHg 45%
    13:00 +21°C° 0 mm 4 mps 747 mmHg 45%
    14:00 +21°C° 0 mm 4 mps 746 mmHg 47%
    15:00 +21°C° 0 mm 4 mps 746 mmHg 50%
    16:00 +21°C° 0 mm 3 mps 746 mmHg 52%
    17:00 +19°C° 0 mm 3 mps 746 mmHg 57%
    18:00 +18°C° 0 mm 3 mps 745 mmHg 62%
    19:00 +16°C° 0 mm 2 mps 745 mmHg 67%
    20:00 +16°C° 0 mm 2 mps 745 mmHg 68%
    21:00 +15°C° 0 mm 2 mps 745 mmHg 69%
    22:00 +15°C° 0 mm 2 mps 745 mmHg 69%
    23:00 +14°C° 0 mm 2 mps 744 mmHg 69%

    28 September, Friday

    Time Temperature Precipitation Wind Pressure Humidity
    00:00 +14°C° 0 mm 2 mps 744 mmHg 69%
    01:00 +14°C° 0 mm 2 mps 744 mmHg 68%
    02:00 +13°C° 0 mm 2 mps 743 mmHg 68%
    03:00 +13°C° 0 mm 2 mps 743 mmHg 68%
    04:00 +13°C° 0 mm 2 mps 742 mmHg 68%
    05:00 +13°C° 0 mm 2 mps 742 mmHg 68%
    06:00 +13°C° 0 mm 2 mps 742 mmHg 67%
    07:00 +13°C° 0 mm 2 mps 742 mmHg 66%
    08:00 +15°C° 0 mm 2 mps 742 mmHg 59%
    09:00 +17°C° 0 mm 3 mps 742 mmHg 52%
    10:00 +19°C° 0 mm 3 mps 742 mmHg 45%
    11:00 +20°C° 0 mm 3 mps 741 mmHg 42%
    12:00 +21°C° 0 mm 3 mps 741 mmHg 40%
    13:00 +22°C° 0 mm 3 mps 741 mmHg 38%
    14:00 +21°C° 0 mm 3 mps 741 mmHg 40%
    15:00 +21°C° 0 mm 3 mps 740 mmHg 43%
    16:00 +21°C° 0 mm 3 mps 740 mmHg 45%
    17:00 +19°C° 0 mm 2 mps 740 mmHg 52%
    18:00 +17°C° 0 mm 2 mps 740 mmHg 59%
    19:00 +16°C° 0 mm 2 mps 740 mmHg 66%
    20:00 +15°C° 0 mm 2 mps 740 mmHg 70%
    21:00 +14°C° 0 mm 2 mps 740 mmHg 73%
    22:00 +14°C° 0 mm 2 mps 741 mmHg 77%
    23:00 +13°C° 0.2 mm 2 mps 741 mmHg 78%

    29 September, Saturday

    Time Temperature Precipitation Wind Pressure Humidity
    00:00 +13°C° 0.2 mm 2 mps 741 mmHg 80%
    01:00 +13°C° 0.2 mm 2 mps 741 mmHg 82%
    02:00 +13°C° 0.6 mm 2 mps 741 mmHg 84%
    03:00 +11°C° 0.6 mm 3 mps 741 mmHg 86%
    04:00 +11°C° 0.6 mm 3 mps 741 mmHg 89%
    05:00 +11°C° 0.3 mm 3 mps 742 mmHg 89%
    06:00 +10°C° 0.3 mm 3 mps 742 mmHg 89%
    07:00 +10°C° 0.3 mm 3 mps 743 mmHg 89%
    08:00 +11°C° 0 mm 3 mps 743 mmHg 82%
    09:00 +11°C° 0 mm 3 mps 744 mmHg 75%
    10:00 +12°C° 0 mm 4 mps 744 mmHg 68%
    11:00 +13°C° 0 mm 4 mps 744 mmHg 62%
    12:00 +13°C° 0 mm 4 mps 744 mmHg 56%
    13:00 +14°C° 0 mm 3 mps 744 mmHg 50%
    14:00 +14°C° 0 mm 3 mps 744 mmHg 50%
    15:00 +13°C° 0 mm 3 mps 744 mmHg 50%
    16:00 +13°C° 0 mm 3 mps 744 mmHg 49%
    17:00 +12°C° 0 mm 3 mps 745 mmHg 52%
    18:00 +11°C° 0 mm 3 mps 745 mmHg 56%
    19:00 +9°C° 0 mm 2 mps 745 mmHg 59%
    20:00 +9°C° 0 mm 2 mps 746 mmHg 59%
    21:00 +8°C° 0 mm 2 mps 746 mmHg 60%
    22:00 +8°C° 0 mm 2 mps 746 mmHg 60%
    23:00 +7°C° 0 mm 2 mps 746 mmHg 60%
    Show more